TimeAST,TemperatureF,Dew PointF,Humidity,Sea Level PressureIn,VisibilityMPH,Wind Direction,Wind SpeedMPH,Gust SpeedMPH,PrecipitationIn,Events,Conditions,WindDirDegrees,DateUTC
12:00 AM,86,50,19,29.52,6,NW,11.5,,,,,320,2013-06-08 21:00:00
12:00 AM,86.0,50.0,29,29.50,-9999.0,NW,11.5,-,N/A,,Clear,320,2013-06-08 21:00:00
1:00 AM,86.0,50.0,29,29.50,-9999.0,NNW,13.8,-,N/A,,Clear,340,2013-06-08 22:00:00
2:00 AM,87.8,46.4,24,29.47,-9999.0,NNW,18.4,-,N/A,,Clear,330,2013-06-08 23:00:00
3:00 AM,87,50,18,29.49,6,NNW,17.3,,,,,330,2013-06-09 00:00:00
3:00 AM,86.0,50.0,29,29.47,-9999.0,NNW,17.3,-,N/A,,Clear,330,2013-06-09 00:00:00
4:00 AM,84.2,51.8,33,29.50,-9999.0,NNW,17.3,-,N/A,,Clear,340,2013-06-09 01:00:00
5:00 AM,82.4,53.6,37,29.50,5.6,NNW,18.4,-,N/A,,Clear,330,2013-06-09 02:00:00
6:00 AM,81,55,31,29.54,5,NNW,15.0,,,,Blowing Sand,330,2013-06-09 03:00:00
6:00 AM,80.6,55.4,42,29.53,5.0,NNW,15.0,-,N/A,,Clear,330,2013-06-09 03:00:00
7:00 AM,84.2,53.6,35,29.53,5.0,NNW,11.5,-,N/A,,Clear,330,2013-06-09 04:00:00
8:00 AM,89.6,51.8,27,29.53,5.0,NNW,23.0,34.5,N/A,,Clear,330,2013-06-09 05:00:00
9:00 AM,95,43,9,29.55,4,North,32.2,,,,Blowing Sand,350,2013-06-09 06:00:00
9:00 AM,95.0,42.8,16,29.53,4.3,North,32.2,-,N/A,,Clear,350,2013-06-09 06:00:00
10:00 AM,98.6,33.8,10,29.53,3.1,NNW,34.5,-,N/A,,Widespread Dust,340,2013-06-09 07:00:00
11:00 AM,100.4,33.8,10,29.53,1.6,North,36.8,-,N/A,,Widespread Dust,350,2013-06-09 08:00:00
12:00 PM,100,34,5,29.54,2,North,32.2,,,,Blowing Sand,350,2013-06-09 09:00:00
12:00 PM,100.4,33.8,10,29.53,2.2,North,32.2,-,N/A,,Widespread Dust,350,2013-06-09 09:00:00
1:00 PM,102.2,35.6,10,29.50,2.5,NNW,31.1,-,N/A,,Widespread Dust,340,2013-06-09 10:00:00
2:00 PM,102.2,35.6,10,29.50,3.1,NNW,28.8,-,N/A,,Widespread Dust,330,2013-06-09 11:00:00
3:00 PM,102,34,4,29.49,4,NNW,26.5,,,,Blowing Sand,340,2013-06-09 12:00:00
3:00 PM,102.2,33.8,9,29.47,3.7,NNW,26.5,-,N/A,,Clear,340,2013-06-09 12:00:00
4:00 PM,100.4,32.0,9,29.47,3.7,NNW,25.3,-,N/A,,Clear,340,2013-06-09 13:00:00
5:00 PM,100.4,33.8,10,29.44,3.7,NNW,23.0,-,N/A,,Clear,330,2013-06-09 14:00:00
6:00 PM,99,34,5,29.47,5,North,20.7,,,,Blowing Sand,0,2013-06-09 15:00:00
6:00 PM,98.6,33.8,10,29.44,5.0,North,20.7,-,N/A,,Unknown,360,2013-06-09 15:00:00
7:00 PM,96.8,33.8,11,29.44,5.0,NNW,17.3,-,N/A,,Unknown,330,2013-06-09 16:00:00
8:00 PM,96.8,32.0,10,29.47,5.0,NNW,16.1,-,N/A,,Clear,330,2013-06-09 17:00:00
9:00 PM,94,37,7,29.49,5,NW,16.1,,,,Blowing Sand,320,2013-06-09 18:00:00
9:00 PM,93.2,37.4,14,29.47,5.0,NW,16.1,-,N/A,,Clear,320,2013-06-09 18:00:00
10:00 PM,89.6,41.0,18,29.50,5.0,WNW,10.4,-,N/A,,Clear,300,2013-06-09 19:00:00
11:00 PM,87.8,41.0,19,29.50,5.0,WNW,9.2,-,N/A,,Clear,300,2013-06-09 20:00:00